Terminal Aerodrome Forecast
Issued by NWS

Home | Current Version | Previous Version | Text Only | Print | Product List | Glossary On
Versions: 1 2 3 4 5 6 7 8 9 10 11 12 13 14 15 16 17 18 19 20 21 22 23 24 25 26 27 28 29 30 31 32 33 34 35 36 37 38 39 40 41 42 43 44 45 46 47
000
FTUS41 KGYX 251124
TAFMHT
TAF
KMHT 251124Z 2512/2612 18005KT 1/2SM -RA FG OVC003 WS020/20040KT
     FM251300 18005KT 3SM -RA BR BKN003 OVC012 WS020/20040KT
     FM251500 27015G30KT P6SM BKN050
     FM260000 27011KT P6SM SKC=

USA.gov is the U.S. government's official web portal to all federal, state and local government web resources and services.